• Join FlightAware (Why Join?)
  • Login
  • US Flag 
04:43AM EDT


 

Airport Tracker/Info


-or-


 

Live Flight TrackerFlight Track Log ✈ ASA525 ✈ 04-May-2013 ✈ KBUR - KSEA

Flight Track Log - Related Links

Times and Time Zones

All times are in EDT time to prevent confusion due to time zone crossing. See the ASA525 flight status page for this flight to view local times or setup timezone preferences in your user account.

Time Position Orientation Groundspeed Altitude Reporting Facility
EDT Latitude Longitude Course Direction KTS MPH feet Rate Location/Type
02:04PM 34.1794 -118.3603 224° Southwest 169 194 2,100  Level Los Angeles Center
02:05PM 34.1383 -118.4083 224° Southwest 210 242 3,800 2,220 Climbing Los Angeles Center
02:06PM 34.1531 -118.4753 285° West 253 291 6,700 3,120 Climbing Los Angeles Center
02:07PM 34.2333 -118.5281 331° Northwest 278 320 10,300 3,180 Climbing Los Angeles Center
02:08PM 34.3078 -118.5711 334° Northwest 292 336 13,300 2,160 Climbing Los Angeles Center
02:09PM 34.3858 -118.6169 334° Northwest 309 356 14,800 1,260 Climbing Los Angeles Center
02:10PM 34.4653 -118.6617 335° Northwest 316 364 16,000 780 Climbing Los Angeles Center
02:11PM 34.5442 -118.7086 334° Northwest 317 365 16,500 1,440 Climbing Los Angeles Center
02:12PM 34.6403 -118.7650 334° Northwest 322 371 19,100 2,100 Climbing Los Angeles Center
02:13PM 34.7217 -118.8150 333° Northwest 327 376 20,900 1,740 Climbing Los Angeles Center
02:14PM 34.8064 -118.8642 335° Northwest 332 382 22,700 1,560 Climbing Los Angeles Center
02:16PM 34.9086 -118.9036 342° North 368 423 24,200 1,800 Climbing Los Angeles Center
02:17PM 35.0164 -118.9389 345° North 399 459 26,500 1,980 Climbing Los Angeles Center
02:18PM 35.1306 -118.9706 347° North 415 478 28,400 2,400 Climbing Los Angeles Center
02:19PM 35.2708 -119.0106 347° North 429 494 31,500 2,460 Climbing Los Angeles Center
02:20PM 35.3833 -119.0433 347° North 424 488 33,500 1,200 Climbing Los Angeles Center
02:21PM 35.4961 -119.0781 346° North 420 483 34,000 240 Climbing Los Angeles Center
02:22PM 35.6092 -119.1111 347° North 419 482 34,000  Level Los Angeles Center
02:22PM 35.6769 -119.1317 346° North 426 490 34,000  Level Oakland Center
02:23PM 35.7897 -119.1653 346° North 421 484 34,000  Level Oakland Center
02:24PM 35.9022 -119.1983 347° North 419 482 34,000  Level Oakland Center
02:25PM 36.0172 -119.2333 346° North 425 489 34,000  Level Oakland Center
02:26PM 36.1303 -119.2650 347° North 422 486 34,000  Level Oakland Center
02:27PM 36.2417 -119.2981 347° North 419 482 34,000  Level Oakland Center
02:28PM 36.3528 -119.3342 345° North 413 475 34,000  Level Oakland Center
02:29PM 36.4642 -119.3692 346° North 416 479 34,000  Level Oakland Center
02:30PM 36.5967 -119.4072 347° North 411 473 34,000  Level Oakland Center
02:31PM 36.7081 -119.4411 346° North 413 475 34,000  Level Oakland Center
02:32PM 36.8211 -119.4756 346° North 416 479 34,000  Level Oakland Center
02:33PM 36.9322 -119.5097 346° North 415 478 34,000  Level Oakland Center
02:34PM 37.0436 -119.5442 346° North 411 473 34,000  Level Oakland Center
02:36PM 37.1547 -119.5786 346° North 412 474 34,000  Level Oakland Center
02:37PM 37.2664 -119.6139 346° North 415 478 34,000  Level Oakland Center
02:38PM 37.3928 -119.6522 346° North 413 475 34,000  Level Oakland Center
02:39PM 37.5044 -119.6861 346° North 413 475 34,000  Level Oakland Center
02:40PM 37.6167 -119.7203 346° North 416 479 34,000  Level Oakland Center
02:41PM 37.7281 -119.7533 347° North 417 480 34,000  Level Oakland Center
02:42PM 37.8403 -119.7889 346° North 417 480 34,000  Level Oakland Center
02:43PM 37.9539 -119.8231 347° North 420 483 34,000  Level Oakland Center
02:44PM 38.0681 -119.8572 347° North 421 484 34,000  Level Oakland Center
02:45PM 38.1975 -119.9011 345° North 406 467 34,000  Level Oakland Center
02:46PM 38.3072 -119.9356 346° North 406 467 34,000  Level Oakland Center
02:47PM 38.4183 -119.9703 346° North 410 472 34,000  Level Oakland Center
02:48PM 38.5308 -120.0058 346° North 417 480 34,000  Level Oakland Center
02:49PM 38.6422 -120.0419 346° North 415 478 34,000  Level Oakland Center
02:50PM 38.7525 -120.0778 346° North 410 472 34,000  Level Oakland Center
02:51PM 38.8617 -120.1136 346° North 408 470 34,000  Level Oakland Center
02:52PM 38.9708 -120.1483 346° North 407 468 34,000  Level Oakland Center
02:53PM 39.1031 -120.1897 346° North 409 471 34,000  Level Oakland Center
02:54PM 39.2131 -120.2267 345° North 408 470 34,000  Level Oakland Center
02:55PM 39.3208 -120.2619 346° North 404 465 34,000  Level Oakland Center
02:56PM 39.4303 -120.2981 346° North 405 466 34,000  Level Oakland Center
02:57PM 39.5381 -120.3325 346° North 402 463 34,000  Level Oakland Center
02:58PM 39.6475 -120.3689 346° North 404 465 34,000  Level Oakland Center
02:59PM 39.7564 -120.4047 346° North 405 466 34,000  Level Oakland Center
03:00PM 39.8664 -120.4411 346° North 406 467 34,000  Level Oakland Center
03:01PM 39.9764 -120.4778 346° North 409 471 34,000  Level Oakland Center
03:02PM 40.0914 -120.5156 346° North 409 471 34,000  Level Oakland Center
03:03PM 40.2208 -120.5597 345° North 404 465 34,000  Level Oakland Center
03:04PM 40.3294 -120.5956 346° North 403 464 34,000  Level Oakland Center
03:05PM 40.4367 -120.6328 345° North 397 457 34,000  Level Oakland Center
03:06PM 40.5433 -120.6672 346° North 394 453 34,000  Level Oakland Center
03:07PM 40.6578 -120.7064 345° North 406 467 34,000  Level Oakland Center
03:08PM 40.7658 -120.7444 345° North 404 465 34,000  Level Oakland Center
03:09PM 40.8711 -120.7794 346° North 391 450 34,000  Level Oakland Center
03:10PM 40.9778 -120.8164 345° North 392 451 34,000  Level Oakland Center
03:11PM 41.0850 -120.8531 346° North 396 456 34,000  Level Oakland Center
03:12PM 41.2144 -120.8986 345° North 400 460 34,000  Level Seattle Center
03:13PM 41.3208 -120.9358 345° North 398 458 34,000  Level Seattle Center
03:14PM 41.4275 -120.9739 345° North 396 456 34,000  Level Seattle Center
03:15PM 41.5339 -121.0111 345° North 397 457 34,000  Level Seattle Center
03:16PM 41.6406 -121.0483 345° North 397 457 34,000  Level Seattle Center
03:17PM 41.7469 -121.0872 345° North 398 458 34,000  Level Seattle Center
03:18PM 41.8517 -121.1225 346° North 391 450 34,000  Level Seattle Center
03:20PM 41.9561 -121.1606 345° North 391 450 34,000  Level Seattle Center
03:21PM 42.0581 -121.1958 346° North 382 440 34,000  Level Seattle Center
03:22PM 42.1622 -121.2336 345° North 390 449 34,000  Level Seattle Center
03:23PM 42.2831 -121.2769 345° North 380 437 34,000  Level Seattle Center
03:24PM 42.3853 -121.3133 345° North 382 440 34,000  Level Seattle Center
03:25PM 42.4861 -121.3503 345° North 378 435 34,000  Level Seattle Center
03:26PM 42.5861 -121.3853 346° North 375 432 34,000  Level Seattle Center
03:27PM 42.6856 -121.4211 345° North 371 427 34,000  Level Seattle Center
03:28PM 42.7836 -121.4567 345° North 365 420 34,000  Level Seattle Center
03:29PM 42.8831 -121.4925 345° North 370 426 34,000  Level Seattle Center
03:30PM 42.9831 -121.5278 346° North 372 428 34,000  Level Seattle Center
03:31PM 43.0842 -121.5669 344° North 376 433 34,000  Level Seattle Center
03:32PM 43.1847 -121.6036 345° North 376 433 34,000  Level Seattle Center
03:33PM 43.2847 -121.6414 345° North 374 430 34,000  Level Seattle Center
03:34PM 43.4006 -121.6828 345° North 364 419 34,000  Level Seattle Center
03:35PM 43.4994 -121.7211 344° North 366 421 34,000  Level Seattle Center
03:36PM 43.5956 -121.7586 344° North 361 415 34,000  Level Seattle Center
03:37PM 43.6917 -121.7925 346° North 358 412 34,000  Level Seattle Center
03:38PM 43.7853 -121.8275 345° North 350 403 34,000  Level Seattle Center
03:39PM 43.8856 -121.8633 346° North 349 402 34,000  Level Seattle Center
03:40PM 43.9706 -121.8950 345° North 350 403 34,000  Level Seattle Center
03:41PM 44.0658 -121.9317 345° North 354 407 34,000  Level Seattle Center
03:42PM 44.1631 -121.9675 345° North 359 413 34,000  Level Seattle Center
03:43PM 44.2792 -122.0128 344° North 361 415 34,000  Level Seattle Center
03:44PM 44.3731 -122.0489 345° North 355 409 34,000  Level Seattle Center
03:45PM 44.4686 -122.0853 345° North 356 410 34,000  Level Seattle Center
03:46PM 44.5633 -122.1228 344° North 356 410 34,000  Level Seattle Center
03:47PM 44.6583 -122.1597 345° North 356 410 34,000  Level Seattle Center
03:48PM 44.7517 -122.1953 345° North 350 403 34,000  Level Seattle Center
03:49PM 44.8458 -122.2331 344° North 352 405 34,000  Level Seattle Center
03:50PM 44.9483 -122.2747 344° North 351 404 34,000  Level Seattle Center
03:51PM 45.0456 -122.3117 345° North 359 413 34,000  Level Seattle Center
03:52PM 45.1392 -122.3494 344° North 356 410 34,000  Level Seattle Center
03:53PM 45.2333 -122.3850 345° North 354 407 34,000  Level Seattle Center
03:54PM 45.3272 -122.4222 344° North 354 407 34,000  Level Seattle Center
03:55PM 45.4219 -122.4597 344° North 355 409 34,000  Level Seattle Center
03:56PM 45.5158 -122.4978 344° North 354 407 34,000  Level Seattle Center
03:57PM 45.6122 -122.5358 345° North 360 414 34,000  Level Seattle Center
03:58PM 45.7264 -122.5839 344° North 358 412 34,000 -960 Level Seattle Center
03:59PM 45.8239 -122.6089 350° North 357 411 32,100 -2,340 Descending Seattle Center
04:00PM 45.9239 -122.6319 351° North 365 420 29,300 -2,520 Descending Seattle Center
04:01PM 46.0222 -122.6597 349° North 364 419 27,000 -2,160 Descending Seattle Center
04:02PM 46.1158 -122.6828 350° North 347 399 25,000 -1,800 Descending Seattle Center
04:03PM 46.2094 -122.7011 352° North 332 382 23,400 -1,560 Descending Seattle Center
04:04PM 46.2972 -122.7192 352° North 324 373 21,900 -1,500 Descending Seattle Center
04:05PM 46.3842 -122.7231 358° North 318 366 20,400 -1,500 Descending Seattle Center
04:06PM 46.4714 -122.7186 North 316 364 18,900 -1,380 Descending Seattle Center
04:07PM 46.5581 -122.7133 North 317 365 17,600 -1,380 Descending Seattle Center
04:08PM 46.6425 -122.7108 North 308 354 16,100 -1,680 Descending Seattle Center
04:09PM 46.7011 -122.7092 North 307 353 15,000 -1,800 Descending Seattle Center
04:09PM 46.7472 -122.7067 North 307 353 14,300 -1,440 Descending Seattle Center
04:10PM 46.8269 -122.6931 North 283 326 12,900 -1,380 Descending Seattle Center
04:11PM 46.8808 -122.6183 43° Northeast 265 305 11,600 -1,200 Descending Seattle Center
04:12PM 46.9311 -122.5492 43° Northeast 250 288 10,500 -1,140 Descending Seattle Center
04:13PM 46.9783 -122.4864 42° Northeast 230 265 9,400 -1,080 Descending Seattle Center
04:14PM 47.0242 -122.4322 39° Northeast 215 247 8,400 -1,140 Descending Seattle Center
04:15PM 47.0803 -122.3856 30° Northeast 215 247 7,200 -1,380 Descending Seattle Center
04:16PM 47.1419 -122.3519 20° North 239 275 5,700 -1,500 Descending Seattle Center
04:17PM 47.2094 -122.3356 North 245 282 4,200 -960 Descending Seattle Center
04:18PM 47.2742 -122.3203 North 232 267 3,800 -660 Descending Seattle Center
04:20PM 47.3289 -122.3206 360° North 199 229 2,900 -960 Descending Seattle Center
04:21PM 47.3756 -122.3203 360° North 138 159 1,900 -960 Descending Seattle Center
04:22PM 47.4150 -122.3183 North 118 136 900 -840 Descending Seattle Center
04:23PM 47.4442 -122.3183 360° North 122 140 300 -720 Descending Seattle Center
04:25PM 47.4499 -122.3118 132° Southeast  Level Estimated